Weather in Oer-Erkenschwick

Germany     51°38′21″N   7°16′01″E
temp.,
°C
wind,
m/s
gust,
m/s
humid.,
%
clouds,
%
prec.,
mm/h
press.,
hPa
HPBL,
m
8 may, sat
sat823:00+4w22790 0.0 101928
02:00+2sw11834 0.0 101910
05:00+3s227871 0.0 101817
08:00+6sse2565100 0.0 1017184
11:00+13s5745100 0.0 10161277
14:00+15s5839100 0.0 10132061
17:00+11s41181100 0.6 1012691
20:00+12ssw51377100 0.7 1010644
9 may, sun
sun923:00+14ssw5137583 0.0 1009603
02:00+13s5138298 0.0 1009373
05:00+11s31089100 0.0 1007232
08:00+14sse31273100 0.0 1007328
11:00+21s51050100 0.0 1005707
14:00+25s711405 0.0 10041599
17:00+25ssw71143100 0.0 10031534
20:00+22ssw5125947 0.0 1002908
10 may, mon
mon1023:00+21s61456100 0.0 1003857
02:00+20ssw61753100 0.0 10031384
05:00+20s61552100 0.0 10021305
08:00+16ssw61677100 0.2 10041272
11:00+16sw71188100 0.6 10051067
14:00+17sw61067100 0.8 10081067
17:00+19sw3649100 0.0 10091750
20:00+16sse2565100 0.0 1009161
11 may, tue
tue1123:00+14s2284100 0.4 101026
02:00+13se2394100 2.1 101081
05:00+11se3697100 6.6 1011292
08:00+11ese3697100 7.5 1011313
11:00+12ene369294 0.1 1010373
14:00+17ene3464100 0.1 10091270
17:00+16e6769100 0.4 10081021
20:00+14e3782100 0.4 1008462
12 may, wed
wed1223:00+11e3895100 0.0 1009276
02:00+11ene269398 0.0 1008218
05:00+10ne2493100 0.0 1008154
08:00+12n1285100 0.0 1008264
11:00+15nnw4569100 0.0 1009933
14:00+17nw4559100 0.1 10091452
17:00+14nw3681100 0.6 1009444
20:00+13n3785100 1.3 1010366